Location: São Paulo
(23.5507°S, 46.6334°W)
Time: 06:59:00
(UTC-03:00)

Transit 2A - Pass Details

Date: 19 February 2026
Orbit: 590 x 954 km, 66.7° (Epoch: 10 March)

Event Time Altitude Azimuth Distance (km) Brightness Sun altitude
Rises 10:54:17 0° 221° (SW) 3,101 8.9 66.1°
Reaches altitude 10° 10:56:52 10° 233° (SW) 2,236 8.3 66.6°
Maximum altitude 11:01:05 26° 289° (WNW) 1,485 7.7 67.4°
Drops below altitude 10° 11:05:38 10° 344° (NNW) 2,420 8.8 68.3°
Sets 11:08:33 0° 356° (N) 3,410 9.5 68.9°
